Haleyville, AL

3:11 AM CST on January 19, 2017 (GMT -0600)
Haleyville

Weather History for K1M4 - January, 2014

Change the Weather History Date:

Thursday, January 30, 2014

  Actual Average (KJFX) Record (KJFX)
Temperature  
Mean Temperature 22 °F -  
Max Temperature 41 °F 54 °F 76 °F (1975)
Min Temperature 2 °F 30 °F 6 °F (2014)
Degree Days  
Heating Degree Days 44    
Moisture  
Dew Point 0 °F    
Average Humidity 45    
Maximum Humidity 92    
Minimum Humidity 14    
Precipitation  
Precipitation 0.00 in - - ()
Sea Level Pressure  
Sea Level Pressure 30.25 in    
Wind  
Wind Speed 4 mph (SSE)    
Max Wind Speed 13 mph    
Max Gust Speed 20 mph    
Visibility 10 miles    
Events      
Averages and records for this station are not official NWS values.
T = Trace of Precipitation, MM = Missing Value Source: NWS Daily Summary

Daily Weather History Graph

Daily Weather History Graph

Search for Another Location

Airport or City:

Trip Planner

Search our weather history database for the weather conditions in past years. The results will help you decide how hot, cold, wet, or windy it might be!

Date:

Astronomy

Jan. 30, 2014 Rise Set
Actual Time 6:49 AM CST 5:18 PM CST
Civil Twilight 6:22 AM CST 5:44 PM CST
Nautical Twilight 5:52 AM CST 6:15 PM CST
Astronomical Twilight 5:23 AM CST 6:44 PM CST
Moon 6:16 AM CST (1/30) 5:27 PM CST (1/30)
Length of Visible Light 11h 22m
Length of Day
10h 29m
Waning Crescent, 0% of the Moon is Illuminated
Jan 30
Waning Crescent
Jan 30
New
Feb 6
First Quarter
Feb 14
Full
Feb 22
Last Quarter

Hourly Weather History & Observations

Time (CST) Temp. Windchill Dew Point Humidity Pressure Visibility Wind Dir Wind Speed Gust Speed Precip Events Conditions
12:56 AM 5.0 °F - 3.0 °F 92% 30.34 in 10.0 mi Calm Calm - N/A   Clear
1:56 AM 5.0 °F - 2.1 °F 88% 30.34 in 10.0 mi Calm Calm - N/A   Clear
2:56 AM 4.1 °F - 1.0 °F 87% 30.33 in 10.0 mi Calm Calm - N/A   Clear
3:56 AM 3.0 °F - 0.1 °F 88% 30.35 in 10.0 mi Calm Calm - N/A   Clear
4:56 AM 3.0 °F - 1.0 °F 91% 30.34 in 10.0 mi Calm Calm - N/A   Clear
5:56 AM 2.1 °F - -0.9 °F 87% 30.32 in 10.0 mi Calm Calm - N/A   Clear
6:56 AM 3.0 °F - 0.1 °F 88% 30.32 in 10.0 mi Calm Calm - N/A   Clear
7:56 AM 16.2 °F - 4.1 °F 59% 30.34 in 10.0 mi Calm Calm - N/A   Clear
8:56 AM 22.1 °F 14.7 °F 2.1 °F 42% 30.34 in 10.0 mi Variable 5.8 mph - N/A   Clear
9:56 AM 26.1 °F 16.8 °F 2.1 °F 36% 30.33 in 10.0 mi SSE 9.2 mph - N/A   Clear
10:56 AM 31.1 °F 23.7 °F -1.8 °F 24% 30.33 in 10.0 mi South 8.1 mph - N/A   Clear
11:56 AM 32.9 °F 23.7 °F -2.9 °F 22% 30.27 in 10.0 mi SSE 12.7 mph - N/A   Clear
12:56 PM 36.9 °F 30.1 °F -4.0 °F 18% 30.21 in 10.0 mi South 9.2 mph - N/A   Clear
1:56 PM 39.9 °F 32.9 °F -6.9 °F 14% 30.17 in 10.0 mi SSE 11.5 mph - N/A   Clear
2:56 PM 41.9 °F 35.9 °F -4.9 °F 14% 30.15 in 10.0 mi South 10.4 mph 19.6 mph N/A   Clear
3:56 PM 41.9 °F 36.9 °F -4.9 °F 14% 30.15 in 10.0 mi South 8.1 mph - N/A   Clear
4:56 PM 41.0 °F 35.8 °F -1.8 °F 17% 30.15 in 10.0 mi South 8.1 mph - N/A   Clear
5:56 PM 36.9 °F 30.7 °F -0.9 °F 20% 30.14 in 10.0 mi SSE 8.1 mph - N/A   Clear
6:56 PM 34.0 °F 28.0 °F 0.1 °F 24% 30.15 in 10.0 mi South 6.9 mph - N/A   Clear
7:56 PM 32.9 °F 25.9 °F 1.0 °F 26% 30.17 in 10.0 mi South 8.1 mph - N/A   Clear
8:56 PM 31.1 °F 25.4 °F 2.1 °F 29% 30.18 in 10.0 mi South 5.8 mph - N/A   Clear
9:56 PM 32.0 °F 24.2 °F 2.1 °F 28% 30.16 in 10.0 mi SSE 9.2 mph - N/A   Clear
10:56 PM 29.1 °F 22.1 °F 4.1 °F 35% 30.17 in 10.0 mi South 6.9 mph - N/A   Clear
11:56 PM 30.0 °F 22.4 °F 7.2 °F 38% 30.18 in 10.0 mi SSE 8.1 mph - N/A   Clear